Regional Weather Roundup
Issued by NWS

Home | Current Version | Previous Version | Graphics & Text | Print | Product List | Glossary On
Versions: 1 2 3 4 5 6 7 8 9 10 11 12 13 14 15 16 17 18 19 20 21 22 23 24 25 26 27 28 29 30 31 32 33 34 35 36 37 38 39 40 41 42 43 44 45 46 47 48 49 50
000
ASUS43 KIND 200209
RWRIN

WEATHER ROUNDUP FOR INDIANA
NATIONAL WEATHER SERVICE INDIANAPOLIS IN
900 PM EST FRI JAN 19 2018

NOTE: "FAIR" INDICATES FEW OR NO CLOUDS BELOW 12,000 FEET WITH NO
SIGNIFICANT WEATHER AND/OR OBSTRUCTIONS TO VISIBILITY.

* - STATION DOES NOT REPORT WEATHER SUCH AS PRECIPITATION OR FOG.

+ - STATION NOT QUALITY CONTROLLED BY THE NATIONAL WEATHER SERVICE.
    USE DATA WITH CAUTION...ESPECIALLY DEWPOINT AND RELATIVE
    HUMIDITY OBSERVATIONS.

INZ001>003-010>013-019-020-200300-
NORTHWEST INDIANA

CITY           SKY/WX    TMP DP  RH WIND       PRES   REMARKS
GARY /AIRPORT/ MOCLDY    37  27  65 S14       29.78S WCI  29
KNOX *+        FAIR      34  27  75 SW21G32   29.82F WCI  22
LA PORTE +     FAIR      34  26  72 SW16G22   29.82R WCI  23
MICHIGAN CITY+ FAIR      36  27  69 S21G31    29.79S WCI  24
MONTICELLO +   FAIR      34  23  64 SW20      29.87F WCI  22
RENSSELAER +   FAIR      34  25  69 S21G28    29.85S WCI  22
VALPARAISO     FAIR      36  26  67 SW21G29   29.81S WCI  25

$$

LMZ046-743>745-200300-
SOUTHERN LAKE MICHIGAN

STATION/POSITION TIME  TEMP    WIND        PRES    WAVE
                       AIR SEA DIR/SP/G            HT
                 (UTC) (F)     (DEG/KT/KT) (MB)    (FT)
BURNS HARBOR     0130   36     200/ 22/ 32 1008.5F
MICHIGAN CITY    0140   37     180/ 21/ 27   N/A

$$

INZ004-005-014>016-021>024-200300-
NORTH CENTRAL INDIANA

CITY           SKY/WX    TMP DP  RH WIND       PRES   REMARKS
ELKHART        FAIR      34  23  64 S12G21    29.80F WCI  25
GOSHEN         FAIR      35  24  64 SW28G39   29.81F WCI  22
LOGANSPORT +   FAIR      32  25  74 SW22G28   29.89F WCI  19
PERU/GRISSOM   FAIR      34  26  71 SW22G29   29.88S WCI  22
ROCHESTER +    FAIR      36  27  69 SW15      29.87S WCI  26
SOUTH BEND     FAIR      35  24  64 SW20G30   29.80S WCI  24
WARSAW +       FAIR      34  25  69 SW10G17   29.85R WCI  26

$$

INZ006>009-017-018-025>027-200300-
NORTHEAST INDIANA

CITY           SKY/WX    TMP DP  RH WIND       PRES   REMARKS
AUBURN +       FAIR     N/A N/A N/A SW9G17    29.86R
FORT WAYNE     FAIR      34  25  69 SW20      29.88S WCI  23
HUNTINGTON +   FAIR      35  23  61 SW12G21   29.88S WCI  27
KENDALLVILLE + FAIR      34  25  69 SW17G23   29.83R WCI  23

$$

INZ028-029-035-036-043>045-051>053-200300-
WEST CENTRAL INDIANA

CITY           SKY/WX    TMP DP  RH WIND       PRES   REMARKS
CRAWFORDSVL +  FAIR      32  22  68 MISG      29.94R
GREENCASTLE +  FAIR      36  19  51 S9G22     29.97S WCI  29
LAFAYETTE      FAIR      34  23  64 SW10G20   29.91S WCI  26
TERRE HAUTE    FAIR      34  20  56 S15G22    29.99F WCI  24

$$

INZ030>032-037>040-046>048-054>057-064-065-200300-
CENTRAL INDIANA

CITY           SKY/WX    TMP DP  RH WIND       PRES   REMARKS
COLUMBUS       CLEAR     30  18  59 S10       30.02F WCI  21
FISHERS *+     FAIR      36  27  69 SW14G21   29.96  WCI  27
FRANKFORT +    FAIR      36  26  68 SW16G22   29.93F WCI  26
INDIANAPOLIS   FAIR      35  23  61 S17       29.97S WCI  25
-EAGLE CREEK   FAIR      36  23  59 S13       29.95F WCI  27
MARION +       FAIR      32  25  74 SW17      29.92R WCI  21
MT COMFORT *+  FAIR      34  27  75 SW15G21   29.96S WCI  24
SHELBYVILLE    FAIR      33  21  61 S13       29.99S WCI  24
ZIONSVILLE +   FAIR      35  23  62 SW22      29.94R WCI  23

$$

INZ033-034-041-042-049-050-058-059-200300-
EAST CENTRAL INDIANA

CITY           SKY/WX    TMP DP  RH WIND       PRES   REMARKS
MUNCIE         FAIR      37  23  56 SW17G30   29.91F WCI  27
RICHMOND +     FAIR      28  23  80 S13       29.99S WCI  18

$$

INZ060-061-067>069-081>083-085>088-200300-
SOUTHWEST INDIANA

CITY           SKY/WX    TMP DP  RH WIND       PRES   REMARKS
EVANSVILLE     FAIR      38  21  50 S12       30.07S WCI  30
HUNTINGBURG +  FAIR      36  20  52 S13       30.07S WCI  27
WASHINGTON +   FAIR      34  18  53 S13       30.03F WCI  25

$$

INZ062-063-066-070>080-084-089>092-200300-
SOUTH CENTRAL AND SOUTHEAST INDIANA

CITY           SKY/WX    TMP DP  RH WIND       PRES   REMARKS
BATESVILLE *+    N/A    N/A N/A N/A MISG        N/A
BEDFORD +      FAIR      36  19  51 S10G16    30.02F WCI  28
BLOOMINGTON    FAIR      37  19  48 SW12      30.00F WCI  29
FRENCH LICK *+ FAIR      36  14  41 S10       30.05F WCI  28
MADISON *+     FAIR      34  21  60 S9        30.08S WCI  26
NORTH VERNON + FAIR      34  21  60 S13       30.05S WCI  25
SEYMOUR +      FAIR      36  21  55 S9        30.04F WCI  29

$$




USA.gov is the U.S. government's official web portal to all federal, state and local government web resources and services.